Total_Precipitation_Accumulation
2.02 2.07 2.04 2.07 1.95 1.80 1.76 1.83 1.91 1.70 1.54 1.35 1.14 0.96 1.01 0.98 1.02 0.86 0.77 0.77 0.64 0.52 0.47 0.41 0.36 0.36 0.37 0.44 0.51 0.56 0.63 0.76 1.07 1.35 1.18 1.02 0.92 0.96
1.77 1.82 1.85 1.91 1.94 1.92 1.87 1.83 1.78 1.72 1.63 1.44 1.16 0.91 0.97 1.02 1.10 0.92 0.88 0.97 0.79 0.61 0.50 0.44 0.40 0.35 0.32 0.32 0.32 0.31 0.32 0.39 0.63 1.14 1.24 1.09 1.05 1.13
1.53 1.56 1.66 1.72 1.89 1.94 1.91 1.84 1.83 1.74 1.58 1.49 1.24 1.02 1.00 1.04 1.08 1.00 0.99 0.96 0.82 0.72 0.60 0.53 0.46 0.43 0.40 0.36 0.34 0.30 0.26 0.25 0.29 0.46 0.67 0.77 0.92 1.13
1.30 1.30 1.40 1.49 1.62 1.77 1.88 1.79 1.79 1.74 1.70 1.64 1.41 1.19 1.10 1.07 1.07 1.03 0.94 0.93 0.92 0.85 0.70 0.61 0.56 0.52 0.48 0.43 0.40 0.37 0.35 0.32 0.31 0.32 0.41 0.53 0.63 0.78
1.10 1.10 1.15 1.22 1.33 1.47 1.61 1.71 1.70 1.66 1.75 1.72 1.50 1.26 1.14 1.08 1.08 1.05 0.98 1.00 0.94 0.90 0.81 0.70 0.64 0.58 0.53 0.51 0.49 0.45 0.40 0.38 0.37 0.39 0.41 0.46 0.54 0.59
0.90 0.88 0.91 0.94 1.01 1.16 1.29 1.45 1.60 1.71 1.80 1.80 1.62 1.34 1.16 1.11 1.11 1.16 1.16 1.05 1.04 0.95 0.92 0.85 0.83 0.78 0.68 0.61 0.55 0.50 0.46 0.45 0.43 0.42 0.42 0.42 0.41 0.43
0.90 0.81 0.74 0.74 0.82 0.91 1.01 1.26 1.44 1.59 1.73 1.78 1.68 1.49 1.29 1.21 1.13 1.11 1.19 1.28 1.26 1.12 1.07 0.97 0.89 0.78 0.70 0.63 0.56 0.48 0.42 0.39 0.36 0.35 0.33 0.32 0.31 0.32
0.87 0.87 0.86 0.81 0.69 0.64 0.68 0.84 1.07 1.28 1.45 1.55 1.57 1.44 1.29 1.23 1.27 1.24 1.19 1.22 1.30 1.18 1.16 1.23 1.12 0.96 0.84 0.72 0.66 0.59 0.50 0.44 0.41 0.38 0.35 0.35 0.37 0.37
0.84 0.84 0.88 0.86 0.88 0.77 0.70 0.68 0.73 0.90 1.12 1.30 1.33 1.29 1.35 1.29 1.23 1.17 1.10 1.07 1.08 1.11 1.12 1.19 1.16 1.05 0.91 0.86 0.87 0.76 0.69 0.60 0.54 0.50 0.45 0.40 0.38 0.37
0.90 0.91 0.93 0.97 0.94 1.02 0.99 0.90 0.85 0.85 0.95 0.87 0.97 1.22 1.30 1.29 1.28 1.30 1.28 1.16 1.07 1.04 1.00 1.04 1.03 0.97 0.86 0.81 0.85 0.77 0.69 0.63 0.59 0.55 0.55 0.52 0.50 0.48
0.86 0.86 0.90 0.93 1.12 1.15 1.06 1.04 0.98 0.94 1.08 1.08 1.08 1.12 1.15 1.14 1.15 1.23 1.27 1.20 1.15 1.05 0.94 0.85 0.85 0.91 0.92 0.84 0.82 0.84 0.76 0.70 0.66 0.65 0.64 0.64 0.64 0.62
0.92 0.88 1.03 0.99 1.00 0.94 0.90 1.09 1.07 0.97 0.88 0.85 0.87 0.91 0.92 0.96 1.00 1.03 1.14 1.13 1.05 1.04 0.91 0.82 0.80 0.86 0.89 0.82 0.74 0.72 0.73 0.76 0.75 0.73 0.74 0.74 0.73 0.66
0.92 0.95 0.92 0.98 0.81 0.76 0.80 0.94 1.10 1.03 0.97 0.99 0.94 0.89 0.87 0.86 0.81 0.85 0.96 1.02 1.02 0.99 0.86 0.78 0.79 0.80 0.74 0.68 0.68 0.63 0.57 0.58 0.59 0.60 0.62 0.67 0.71 0.66
0.81 0.74 0.73 0.79 0.64 0.58 0.57 0.69 0.86 0.89 0.89 0.96 0.94 0.88 0.83 0.80 0.76 0.75 0.80 0.86 0.87 0.86 0.85 0.79 0.78 0.76 0.70 0.58 0.55 0.56 0.55 0.53 0.51 0.51 0.48 0.57 0.60 0.63
0.62 0.61 0.54 0.50 0.49 0.45 0.47 0.55 0.60 0.74 0.88 0.92 0.84 0.78 0.79 0.81 0.80 0.75 0.70 0.70 0.71 0.69 0.66 0.65 0.70 0.77 0.75 0.64 0.55 0.54 0.55 0.55 0.50 0.48 0.49 0.49 0.48 0.51
0.40 0.34 0.32 0.35 0.41 0.43 0.43 0.44 0.50 0.68 0.84 0.85 0.78 0.73 0.74 0.77 0.81 0.81 0.77 0.71 0.69 0.69 0.64 0.61 0.64 0.69 0.69 0.63 0.59 0.54 0.55 0.55 0.51 0.52 0.53 0.52 0.50 0.47
0.52 0.44 0.37 0.35 0.37 0.40 0.41 0.46 0.59 0.69 0.77 0.71 0.70 0.67 0.68 0.74 0.78 0.81 0.84 0.80 0.73 0.70 0.73 0.75 0.74 0.73 0.71 0.69 0.67 0.63 0.62 0.60 0.58 0.59 0.57 0.53 0.50 0.48
0.51 0.52 0.51 0.51 0.51 0.50 0.47 0.43 0.45 0.52 0.59 0.64 0.64 0.63 0.61 0.60 0.61 0.65 0.70 0.72 0.70 0.68 0.65 0.67 0.73 0.79 0.78 0.74 0.65 0.61 0.66 0.68 0.67 0.66 0.60 0.54 0.50 0.53
0.44 0.46 0.46 0.46 0.46 0.43 0.40 0.38 0.34 0.34 0.41 0.50 0.59 0.64 0.65 0.62 0.59 0.56 0.55 0.55 0.54 0.53 0.52 0.52 0.55 0.60 0.65 0.65 0.64 0.55 0.53 0.60 0.63 0.60 0.58 0.53 0.47 0.51
0.27 0.32 0.32 0.31 0.31 0.31 0.28 0.26 0.25 0.27 0.29 0.31 0.39 0.49 0.61 0.71 0.71 0.65 0.60 0.58 0.56 0.51 0.49 0.45 0.44 0.43 0.47 0.48 0.46 0.44 0.44 0.48 0.51 0.50 0.48 0.48 0.46 0.49
0.10 0.13 0.14 0.14 0.17 0.17 0.16 0.16 0.18 0.20 0.23 0.23 0.25 0.28 0.36 0.48 0.59 0.65 0.67 0.73 0.71 0.65 0.61 0.57 0.53 0.55 0.48 0.46 0.42 0.35 0.34 0.37 0.38 0.37 0.37 0.40 0.41 0.40
0.05 0.06 0.06 0.07 0.09 0.10 0.09 0.09 0.10 0.12 0.15 0.17 0.17 0.19 0.23 0.28 0.36 0.45 0.50 0.55 0.59 0.62 0.64 0.65 0.63 0.62 0.57 0.54 0.46 0.38 0.36 0.36 0.38 0.41 0.38 0.36 0.34 0.32
0.04 0.05 0.05 0.05 0.06 0.08 0.13 0.14 0.11 0.10 0.11 0.14 0.16 0.16 0.17 0.19 0.22 0.27 0.32 0.37 0.42 0.46 0.50 0.53 0.53 0.51 0.50 0.50 0.49 0.47 0.42 0.39 0.39 0.38 0.37 0.42 0.40 0.31